Mar del Plata, Argentina

11:43 AM America en Noviembre 16, 2018 (GMT +0000)
Mar Del Plata International

Tiempo Historia de SAZM - Junio, 2018

Change the Weather History Date:

Miércoles, Junio 13, 2018

  Actual Average Record
Temperature  
Temperatura media 45 ° F -  
Temperatura máxima 50 ° F 57 ° F 69 ° F (2013)
Temperatura mínima 40 ° F 39 ° F 28 ° F (2015)
Degree Days  
Grados día de calefacción 20    
Moisture  
Punto de rocío 40 ° F    
Average Humidity 74    
Maximum Humidity 93    
Minimum Humidity 57    
Precipitación  
Precipitación 0.03 pul 0.07 pul - ()
Presión al nivel del mar  
Presión al nivel del mar 30.09 pul    
Viento  
Velocidad del viento 11 mph ()    
Velocidad máxima del viento 16 mph    
Max Gust Speed 28 mph    
Visibilidad 5.7 Millas    
Eventos Lluvia    
Averages and records for this station are not official NWS values.
T = Trace of Precipitation, MM = Missing Value Source: Averaged Metar Reports

Daily Weather History Graph

Daily Weather History Graph

Search for Another Location

Airport or City:

Astronomía

Jun. 13, 2018 Salida Puesta
Hora real 8:03 AM -03 5:37 PM -03
Crepúsculo civil 7:34 AM -03 6:06 PM -03
Crepúsculo náutico 7:01 AM -03 6:39 PM -03
Crepúsculo astronómico 6:29 AM -03 7:11 PM -03
Luna 7:31 AM -03 (6/13) 5:48 PM -03 (6/13)
Horas de luz 10h 32m
Horas de luz
9h 33m
Creciente menguante, 0% of the Moon is Illuminated
Jun 13
Creciente menguante
Jun 13
Nueva
Jun 20
Cuarto creciente
Jun 28
Luna llena
Jul 6
Cuarto menguante

Hourly Weather History & Observations

Hora (-03) Temp. Vientos helados Punto de rocío Humedad Presión Visibilidad Wind Dir Velocidad del viento Velocidad de ráfagas Precip Eventos Condiciones
12:00 AM 48 ° F - 41 ° F 68% 29.96 pul 6 mi Sur 16.1 mph - -   Parcialmente nublado
12:00 AM 48.2 ° F - 41.0 ° F 76% 29.95 pul 6.2 mi Sur 16.1 mph 27.6 mph N/A   Nublado
1:00 AM 48.2 ° F - 41.0 ° F 76% 29.95 pul 6.2 mi Sur 15.0 mph 26.5 mph N/A   Nublado
2:00 AM 48.2 ° F - 41.0 ° F 76% 29.95 pul 4.3 mi Sur 16.1 mph - N/A Lluvia Lluvia débil
3:00 AM 48 ° F - 40 ° F 64% 29.98 pul 6 mi SSO 15.0 mph - - Lluvia Lluvia débil
3:00 AM 48.2 ° F - 39.2 ° F 71% 29.98 pul 6.2 mi SSO 15.0 mph - N/A   Nublado
4:00 AM 48.2 ° F - 41.0 ° F 76% 29.98 pul 6.2 mi SSO 11.5 mph - N/A   Muy nublado
5:00 AM 48.2 ° F - 39.2 ° F 71% 29.98 pul 6.2 mi SSO 13.8 mph - N/A   Muy nublado
6:00 AM 46 ° F - 42 ° F 81% 30.00 pul 2 mi SSO 10.4 mph - - Lluvia Lluvia fuerte
6:00 AM 46.4 ° F 41.5 ° F 42.8 ° F 87% 30.01 pul 1.9 mi SSO 10.4 mph - N/A Lluvia Lluvia fuerte
6:17 AM 46.4 ° F 41.1 ° F 42.8 ° F 87% 30.01 pul 3.7 mi SSO 11.5 mph 23.0 mph N/A Lluvia Lluvia débil
7:00 AM 46.4 ° F 41.1 ° F 41.0 ° F 81% 30.01 pul 5.0 mi SSO 11.5 mph 23.0 mph N/A Lluvia Lluvia débil
8:00 AM 46.4 ° F 41.5 ° F 41.0 ° F 81% 30.04 pul 5.6 mi SSO 10.4 mph - N/A Lluvia Lluvia débil
9:00 AM 47 ° F - 40 ° F 68% 30.08 pul 6 mi SSO 8.1 mph - - Lluvia Lluvia débil
9:00 AM 48.2 ° F - 39.2 ° F 71% 30.06 pul 6.2 mi SSO 8.1 mph - N/A   Nublado
10:00 AM 48.2 ° F - 39.2 ° F 71% 30.09 pul 6.2 mi SSO 11.5 mph - N/A   Muy nublado
11:00 AM 48.2 ° F - 37.4 ° F 66% 30.09 pul 6.2 mi SSO 10.4 mph - N/A   Muy nublado
12:00 PM 49 ° F - 40 ° F 61% 30.14 pul 6 mi SO 12.7 mph - -   Muy nublado
12:00 PM 50.0 ° F - 39.2 ° F 66% 30.12 pul 6.2 mi SO 12.7 mph - N/A   Muy nublado
1:00 PM 50.0 ° F - 39.2 ° F 66% 30.12 pul 6.2 mi SSO 10.4 mph - N/A   Muy nublado
2:00 PM 50.0 ° F - 41.0 ° F 71% 30.15 pul 6.2 mi SO 11.5 mph - N/A   Muy nublado
3:00 PM 50 ° F - 39 ° F 57% 30.16 pul 6 mi SO 10.4 mph - -   Parcialmente nublado
3:00 PM 50.0 ° F - 39.2 ° F 66% 30.15 pul 6.2 mi SO 10.4 mph - N/A   Muy nublado
4:00 PM 50.0 ° F - 37.4 ° F 62% 30.15 pul 6.2 mi SO 9.2 mph - N/A   Nubes dispersas
5:00 PM 50.0 ° F - 37.4 ° F 62% 30.18 pul 6.2 mi SO 9.2 mph - N/A   Nubes dispersas
6:00 PM 46 ° F - 39 ° F 70% 30.20 pul 6 mi OSO 4.6 mph - -   Nubes dispersas
6:00 PM 46.4 ° F 44.3 ° F 37.4 ° F 71% 30.18 pul 6.2 mi OSO 4.6 mph - N/A   Parcialmente nublado
7:00 PM 42.8 ° F 41.1 ° F 37.4 ° F 81% 30.21 pul 6.2 mi OSO 3.5 mph - N/A   Parcialmente nublado
8:00 PM 41.0 ° F 39.0 ° F 37.4 ° F 87% 30.21 pul - Oeste 3.5 mph - N/A   Despejado
9:00 PM 40 ° F - 37 ° F 83% 30.24 pul 6 mi ONO 3.5 mph - -   Nubes dispersas
9:00 PM 41.0 ° F 39.0 ° F 37.4 ° F 87% 30.24 pul 6.2 mi ONO 3.5 mph - N/A   Parcialmente nublado
10:00 PM 41.0 ° F 39.0 ° F 39.2 ° F 93% 30.24 pul - Oeste 3.5 mph - N/A   Despejado
11:00 PM 41.0 ° F 36.4 ° F 39.2 ° F 93% 30.24 pul - Oeste 6.9 mph - N/A   Despejado